Terminal Aerodrome Forecast
Issued by NWS Mt. Holly, NJ

Home | Current Version | Previous Version | Text Only | Print | Product List | Glossary On
Versions: 1 2 3 4 5 6 7 8 9 10 11 12 13 14 15 16 17 18 19 20 21 22
000
FTUS41 KPHI 282335
TAFRDG
TAF
KRDG 282335Z 2900/2924 32007KT P6SM SCT250
     FM290300 VRB03KT 5SM BR SKC
     FM291500 11004KT P6SM FEW050
     FM291900 16006KT P6SM FEW050=

USA.gov is the U.S. government's official web portal to all federal, state and local government web resources and services.